Location: Domachevo
(51.7500°N, 23.6000°E)
Time: 16:45:45
(UTC+03:00)

GENESIS II - Visible Passes

Search period start: 21 June 2018 00:00
Search period end: 01 July 2018 00:00
Orbit: 504 x 528 km, 64.5° (Epoch: 20 June)

Date Brightness Start Highest point End Pass type
(mag) Time Alt. Az. Time Alt. Az. Time Alt. Az.
21 Jun 5.7 00:04:16 10° WSW 00:07:58 39° NW 00:11:43 10° NNE visible
21 Jun 7.3 01:44:13 10° NW 01:46:39 16° NNW 01:49:06 10° NNE visible
21 Jun 7.5 03:23:40 10° NNW 03:25:51 14° N 03:28:01 10° NE visible
21 Jun 5.8 23:48:39 10° WSW 23:52:20 38° NW 23:56:05 10° NNE visible
22 Jun 7.4 01:28:37 10° NW 01:31:02 15° NNW 01:33:28 10° NNE visible
22 Jun 7.5 03:08:03 10° NNW 03:10:13 14° N 03:12:25 10° NE visible
22 Jun 5.9 23:33:02 10° WSW 23:36:43 38° NW 23:40:27 10° NNE visible
23 Jun 7.5 01:13:02 10° NW 01:15:26 15° NNW 01:17:51 10° NNE visible
23 Jun 7.6 02:52:25 10° NNW 02:54:37 14° N 02:56:49 10° NE visible
23 Jun 6.0 23:17:25 10° WSW 23:21:06 37° NW 23:24:49 10° NNE visible
24 Jun 7.6 00:57:25 10° NW 00:59:49 15° NNW 01:02:13 10° NNE visible
24 Jun 7.7 02:36:48 10° NNW 02:39:01 14° N 02:41:13 10° NE visible
24 Jun 6.6 04:14:16 10° NNW 04:17:51 31° NNE 04:21:25 10° E visible
24 Jun 6.0 23:01:49 10° WSW 23:05:29 37° NW 23:09:11 10° NNE visible
25 Jun 7.7 00:41:50 10° NW 00:44:12 15° NNW 00:46:35 10° NNE visible
25 Jun 7.7 02:21:10 10° NNW 02:23:23 14° N 02:25:37 10° NE visible
25 Jun 6.5 03:58:38 10° NNW 04:02:13 31° NNE 04:05:48 10° E visible
25 Jun 6.1 22:46:12 10° WSW 22:49:51 36° NW 22:53:33 10° NNE visible
26 Jun 7.7 00:26:13 10° NW 00:28:35 15° NNW 00:30:57 10° NNE visible
26 Jun 7.8 02:05:32 10° NNW 02:07:47 14° N 02:10:01 10° NE visible
26 Jun 6.4 03:43:00 10° NNW 03:46:36 31° NNE 03:50:12 10° E visible
26 Jun 6.2 22:30:35 10° WSW 22:34:14 36° NW 22:37:55 10° NNE visible
27 Jun 7.7 00:10:38 10° NW 00:12:58 15° NNW 00:15:20 10° NNE visible
27 Jun 7.7 01:49:55 10° NNW 01:52:10 14° N 01:54:25 10° NE visible
27 Jun 6.4 03:27:21 10° NNW 03:30:59 32° NE 03:34:35 10° E visible
27 Jun 7.6 23:55:01 10° NW 23:57:21 15° NNW 23:59:42 10° NNE visible
28 Jun 7.6 01:34:16 10° NNW 01:36:33 15° NNE 01:38:49 10° NE visible
28 Jun 6.3 03:11:43 10° NNW 03:15:21 32° NE 03:18:58 10° E visible
28 Jun 7.5 23:39:25 10° NW 23:41:44 15° NNW 23:44:03 10° NNE visible
29 Jun 7.5 01:18:39 10° NNW 01:20:56 15° NNE 01:23:13 10° NE visible
29 Jun 6.2 02:56:05 10° NNW 02:59:43 33° NE 03:03:22 10° E visible
29 Jun 7.5 23:23:49 10° NW 23:26:07 15° NNW 23:28:26 10° NNE visible
30 Jun 7.4 01:03:01 10° NNW 01:05:18 15° NNE 01:07:37 10° NE visible
30 Jun 6.1 02:40:27 10° NNW 02:44:06 33° NE 02:47:44 10° E visible
30 Jun 4.5 04:18:06 10° NW 04:21:55 45° SW 04:25:44 10° SSE visible
30 Jun 7.4 23:08:13 10° NW 23:10:30 15° NNW 23:12:48 10° NNE visible
